Wind_Speed
24 24 24 25 24 24 23 22 21 21 21 21 21 21 21 20 20 19 18 16 16 15 15 14 14 14 14 14 14 14 13 13 13 13 13 12 12 12 11 11 10 10 9 9 8 8 8 7 7
25 25 25 26 27 25 24 24 23 22 23 23 24 24 23 22 21 20 20 18 18 17 17 16 16 16 15 15 15 15 15 14 15 15 15 14 14 14 13 13 12 12 11 11 10 10 10 9 9
26 27 27 28 27 26 26 26 24 24 25 25 26 26 25 24 23 22 22 21 20 20 19 18 17 18 17 17 17 17 17 16 16 16 16 16 15 15 15 14 14 14 13 13 12 12 11 11 10
28 28 29 29 27 27 27 27 27 27 26 27 27 27 26 25 25 24 24 23 22 21 21 20 19 19 20 19 19 19 18 18 17 17 18 18 17 16 16 16 15 15 15 14 14 14 13 12 12
29 30 30 30 28 28 28 29 29 29 28 28 29 28 27 27 26 25 25 25 24 23 22 22 22 21 21 21 20 20 20 19 19 19 19 19 19 19 18 18 17 17 17 16 16 15 15 15 14
31 31 31 30 29 29 30 30 31 30 29 30 30 30 29 28 28 27 27 27 26 26 24 24 24 23 22 22 22 21 21 21 20 20 20 20 20 20 20 19 19 19 19 18 18 17 17 16 16
32 32 32 30 30 31 31 32 32 31 31 30 30 30 30 29 29 29 29 28 28 28 27 26 26 26 25 24 24 23 23 22 22 22 22 22 21 21 21 21 21 21 21 20 20 19 19 18 18
33 34 33 31 31 32 32 33 33 33 32 32 31 31 30 30 30 31 30 30 30 30 29 29 29 28 27 26 25 25 25 25 24 24 24 23 23 23 23 23 22 22 22 22 22 21 21 20 20
34 35 34 32 32 32 33 33 33 34 34 33 33 33 33 32 31 32 31 32 32 32 31 30 30 30 29 28 27 27 26 26 26 26 26 25 25 25 25 25 24 24 24 24 23 23 23 22 22
35 35 34 33 33 33 34 34 35 35 34 34 34 34 34 34 34 34 34 33 33 32 32 31 31 30 30 29 29 29 28 28 28 28 28 27 27 27 26 26 26 26 26 25 25 25 24 24 24
35 35 34 34 34 35 36 36 37 36 35 35 35 35 35 35 35 35 36 35 35 34 34 33 32 31 31 30 30 30 30 30 30 29 29 29 28 28 28 27 27 27 27 27 27 26 26 26 26
36 35 35 35 35 36 37 37 38 38 37 37 36 36 37 36 36 36 37 37 37 36 35 35 34 34 33 32 32 32 32 32 31 31 31 31 30 30 29 29 29 29 29 29 29 29 28 28 27
37 36 37 37 37 37 38 38 38 39 39 39 38 38 38 38 38 38 37 38 38 38 37 37 36 36 35 35 34 34 34 34 33 33 33 32 32 31 31 30 30 30 30 31 30 30 30 29 29
37 37 37 37 38 38 39 39 39 39 39 39 39 39 39 39 40 40 40 39 39 39 39 39 39 38 38 37 37 36 35 36 36 35 34 34 34 33 33 33 32 32 32 33 32 32 32 31 30
37 38 38 38 39 39 41 41 40 39 40 40 40 40 40 41 42 41 42 41 41 41 41 41 41 41 40 39 39 38 37 37 38 37 36 36 35 35 35 35 34 34 34 34 34 34 34 33 33
38 38 38 38 39 40 41 41 40 40 41 41 41 42 43 43 43 43 43 44 43 43 43 43 43 43 43 42 41 41 41 40 40 39 39 38 37 36 36 37 36 36 36 36 36 36 36 36 35
37 38 38 38 39 40 42 41 40 41 42 42 43 43 43 44 44 45 45 45 45 44 45 44 44 44 44 44 43 43 43 43 42 41 40 40 39 38 38 38 38 38 38 38 38 38 38 38 37
37 37 36 36 37 39 40 40 39 41 42 43 43 44 43 44 45 45 46 46 46 46 46 46 45 46 46 46 45 45 44 44 43 42 41 41 41 40 39 39 39 39 39 39 39 39 39 39 39
36 36 36 36 37 38 39 38 38 40 41 42 42 43 44 45 45 46 47 48 48 48 48 48 47 47 47 47 47 46 46 45 44 43 43 42 42 41 41 41 40 40 39 39 39 39 40 40 40
36 36 36 36 37 38 38 38 38 39 41 41 41 41 43 44 45 45 46 47 48 49 49 49 49 49 49 48 48 48 48 47 46 46 45 44 44 43 43 42 42 41 41 40 40 40 40 40 40
35 35 36 37 37 38 39 38 37 38 39 40 40 41 41 42 43 44 45 46 47 48 48 49 49 50 50 50 50 50 50 48 48 47 47 46 46 45 44 43 43 43 43 42 41 41 41 41 41
34 34 35 36 37 37 37 39 36 36 37 39 40 40 40 42 43 44 45 45 46 47 48 49 49 50 50 51 51 50 50 50 48 47 47 47 47 46 45 44 45 44 44 43 43 42 42 42 42
33 34 34 35 36 37 37 38 36 36 37 37 38 39 39 40 41 43 43 44 45 46 48 49 50 50 51 51 51 51 51 51 49 49 48 48 48 48 47 47 46 45 44 44 44 43 43 43 43
31 32 33 34 35 37 36 38 37 35 36 36 37 38 39 39 40 41 42 42 43 44 46 48 49 51 52 52 52 52 51 51 51 51 50 49 49 49 47 47 47 47 46 45 45 44 44 44 44
28 29 30 31 33 34 34 36 37 35 35 36 37 38 38 39 40 41 42 42 43 44 45 47 48 50 50 51 52 52 51 51 51 51 51 51 50 48 47 47 47 47 46 45 45 45 45 45 44
26 27 28 30 32 32 32 34 34 34 34 35 37 37 38 39 40 40 41 42 42 43 44 45 46 48 49 50 51 51 51 51 51 51 50 51 50 48 47 47 47 47 47 46 47 46 46 46 45
25 26 27 29 31 31 31 32 31 32 33 33 34 35 37 38 39 40 41 42 42 42 43 44 45 46 48 49 50 51 51 51 51 51 50 50 49 49 48 47 47 47 47 47 47 47 46 46 46
24 25 26 28 30 30 30 29 29 29 31 32 32 33 35 36 37 38 40 41 41 42 43 43 44 45 47 48 49 51 51 51 52 52 51 50 49 49 50 50 48 47 47 47 47 46 46 46 46
22 23 24 26 28 30 30 28 27 28 28 30 31 33 34 35 36 36 37 38 39 41 42 43 43 44 45 47 48 49 50 51 52 52 50 49 49 48 48 48 48 48 47 47 47 47 46 46 46
22 22 23 25 26 28 29 27 26 27 27 29 30 31 32 32 33 34 34 35 36 37 39 41 42 43 44 45 46 47 48 49 50 50 50 49 49 48 47 47 48 49 48 47 47 47 46 46 46
Wind_Direction
245 245 247 248 248 248 249 250 251 250 250 251 251 250 249 249 249 250 251 250 251 250 248 249 246 245 246 242 242 245 247 249 251 249 247 248 250 251 251 250 250 251 250 250 252 250 248 249 249
246 247 249 250 250 251 251 251 252 251 251 251 251 250 249 250 250 250 249 249 250 250 249 250 246 245 245 245 244 245 247 250 252 249 248 249 252 254 253 252 253 253 253 252 253 253 251 249 249
248 248 250 251 253 253 251 250 251 251 250 250 250 249 250 251 251 249 248 248 249 250 249 248 247 246 247 248 248 248 249 251 253 252 251 250 252 254 254 254 254 255 255 254 252 253 253 251 250
249 249 251 252 254 254 253 251 251 250 250 250 251 250 251 251 250 249 247 247 248 249 250 248 249 251 249 248 250 251 251 251 252 254 254 252 252 253 255 254 254 255 256 256 254 253 253 253 253
250 251 252 253 254 254 254 253 253 252 251 252 254 254 253 252 249 247 246 246 247 248 250 251 251 252 250 249 250 250 250 251 252 252 254 254 253 253 254 255 254 255 256 257 256 254 253 254 254
252 253 255 256 255 255 255 254 253 253 253 254 254 255 253 251 248 246 246 246 246 247 248 251 252 251 250 250 249 251 251 251 253 253 253 255 254 253 253 255 256 256 256 257 257 256 254 254 254
254 255 256 257 256 255 254 254 253 253 254 254 254 254 253 250 249 248 246 246 246 247 248 249 251 251 252 250 251 252 253 253 253 254 255 255 256 255 255 255 256 256 256 256 256 256 255 254 255
255 256 257 257 256 255 254 254 254 253 253 254 254 253 253 250 249 249 248 246 246 246 248 249 250 251 251 250 250 251 252 252 253 253 255 256 257 257 257 256 256 255 255 255 255 256 255 256 257
255 256 257 257 257 256 255 254 253 253 253 253 254 253 251 249 249 250 249 247 247 248 248 249 251 250 250 250 251 251 252 252 252 253 255 256 257 257 256 255 255 255 254 255 255 255 256 257 258
256 257 257 257 257 255 254 253 253 253 253 253 253 252 250 249 249 249 249 250 248 248 248 249 249 249 249 249 250 251 252 252 253 253 254 256 256 257 256 255 255 255 254 255 255 256 256 257 258
257 257 257 256 256 255 254 253 253 252 252 253 252 252 251 250 250 249 248 249 248 249 249 249 249 249 249 250 250 250 251 252 253 254 254 255 256 256 256 256 255 255 255 255 255 257 258 258 257
257 256 256 256 256 256 255 254 253 253 253 252 252 251 252 251 250 249 248 248 248 248 249 249 249 250 250 250 250 250 251 252 253 254 254 255 256 256 256 256 255 256 256 256 255 257 258 259 259
257 256 256 256 256 256 256 255 254 253 253 253 252 252 251 250 249 248 248 248 248 249 249 249 250 250 250 250 250 250 250 252 253 254 253 254 255 256 256 255 255 256 256 256 257 256 257 259 260
257 257 257 257 257 257 257 256 256 254 254 254 253 252 251 250 249 249 249 248 249 249 248 248 249 250 250 250 250 251 251 252 253 254 254 254 254 254 254 255 255 256 256 256 256 257 257 259 261
258 257 257 257 257 257 257 256 256 256 255 254 253 252 251 249 249 249 249 250 250 250 248 249 249 250 250 250 251 252 253 253 254 254 254 254 255 254 254 254 254 255 255 256 256 257 257 258 260
259 258 257 257 257 257 257 257 256 256 256 255 253 252 251 250 249 248 249 250 250 250 250 250 250 250 251 251 252 252 253 254 255 254 253 254 255 255 255 255 254 255 255 255 255 256 257 259 260
260 260 260 259 258 258 258 259 256 256 256 255 253 252 251 251 250 249 249 250 250 250 250 250 251 251 251 252 253 252 252 252 253 253 254 254 255 255 256 255 255 255 256 256 256 256 257 259 260
262 262 261 261 260 259 259 259 257 257 256 255 253 252 251 250 250 250 250 250 250 251 250 250 251 251 251 251 252 252 252 252 252 254 254 254 255 254 255 256 256 256 257 258 258 257 258 259 260
261 261 260 259 260 261 261 260 258 257 256 254 253 252 250 249 250 250 250 250 250 251 252 251 251 251 251 251 251 251 251 252 252 254 254 253 254 254 255 256 257 257 257 258 258 258 259 259 260
260 260 260 260 261 262 262 260 259 258 257 256 255 253 250 249 250 251 252 251 251 252 251 251 250 250 251 251 250 250 251 250 250 252 253 252 252 253 255 256 256 257 257 258 258 258 259 259 260
261 261 261 261 261 262 262 260 259 259 259 257 255 253 251 251 251 252 251 251 252 252 251 250 249 249 249 250 250 250 250 250 250 251 252 252 252 252 254 255 255 256 257 257 258 258 258 260 261
262 263 263 262 262 263 264 264 259 259 259 258 256 254 253 253 253 253 253 252 252 252 252 251 250 249 249 249 249 249 249 249 250 251 251 251 250 251 252 253 255 256 256 256 256 257 258 260 261
265 265 264 263 262 263 263 265 263 260 259 259 257 256 255 255 255 254 254 253 253 252 251 251 250 250 249 248 248 249 249 248 248 249 250 250 249 250 252 252 254 254 255 255 255 256 259 260 261
268 268 266 263 263 264 264 265 265 262 261 259 258 258 257 257 257 255 255 255 254 253 252 252 251 251 250 249 248 248 248 248 248 249 250 249 249 251 252 253 253 254 254 255 255 257 258 260 261
270 269 268 266 265 266 267 267 267 266 263 260 259 258 258 258 257 255 255 255 255 254 254 253 252 251 250 249 248 248 248 248 248 248 249 249 250 251 252 253 253 254 254 254 255 256 258 260 261
271 271 270 270 270 270 269 269 269 269 266 263 261 260 259 259 258 256 256 256 256 255 253 253 253 252 250 249 248 247 247 248 247 247 248 248 249 250 252 253 253 254 254 255 255 256 258 258 259
272 270 271 271 272 273 272 271 270 270 268 266 264 263 262 260 259 258 258 257 257 255 254 254 253 253 252 250 248 247 246 246 246 246 247 247 247 249 250 251 253 255 255 254 255 256 257 257 258
275 274 272 272 273 274 274 274 274 272 271 269 266 265 264 263 262 260 258 257 256 256 256 255 255 254 253 251 248 246 245 245 245 246 247 246 247 249 250 251 252 253 254 255 255 256 256 256 258
277 276 274 273 274 276 277 276 275 275 273 271 268 266 266 265 263 262 259 259 260 259 258 256 256 255 253 251 248 245 244 243 245 246 247 247 248 249 250 250 251 253 254 255 255 256 256 257 258
276 276 275 277 278 278 278 278 277 277 275 273 270 267 265 264 264 262 260 260 260 259 258 257 257 255 254 251 248 246 244 243 244 245 245 246 248 250 252 252 252 253 254 255 255 255 255 257 257
Height
5821 5822 5824 5825 5827 5828 5829 5831 5832 5833 5834 5834 5835 5836 5837 5839 5840 5844 5843 5843 5844 5845 5846 5847 5848 5849 5849 5850 5851 5851 5852 5853 5853 5854 5854 5855 5856 5856 5857 5857 5858 5858 5858 5858 5858 5858 5859 5859 5859
5816 5818 5820 5821 5821 5823 5826 5827 5828 5829 5830 5830 5830 5831 5833 5834 5836 5837 5838 5839 5840 5841 5843 5844 5845 5846 5846 5847 5848 5849 5850 5850 5851 5852 5852 5853 5854 5854 5855 5855 5855 5856 5856 5856 5856 5857 5857 5857 5857
5811 5813 5815 5815 5816 5819 5821 5823 5824 5824 5824 5825 5826 5826 5828 5830 5831 5833 5834 5835 5836 5838 5839 5840 5842 5843 5843 5844 5845 5846 5847 5848 5848 5849 5850 5850 5851 5852 5852 5853 5853 5853 5854 5854 5854 5854 5855 5855 5855
5806 5808 5809 5810 5812 5814 5816 5817 5818 5818 5819 5819 5820 5821 5823 5825 5826 5828 5829 5831 5832 5833 5835 5836 5838 5839 5840 5841 5842 5843 5844 5845 5845 5846 5847 5848 5848 5849 5849 5850 5850 5850 5851 5851 5851 5852 5852 5853 5853
5800 5801 5803 5804 5806 5808 5810 5810 5811 5812 5813 5814 5815 5816 5818 5819 5821 5823 5824 5826 5827 5829 5830 5832 5834 5835 5836 5837 5838 5839 5840 5841 5842 5843 5843 5844 5845 5845 5846 5846 5847 5847 5847 5848 5848 5849 5849 5850 5850
5795 5795 5797 5799 5801 5802 5803 5804 5805 5806 5807 5808 5809 5810 5811 5813 5814 5817 5819 5820 5822 5824 5826 5827 5829 5830 5832 5833 5834 5835 5836 5837 5838 5839 5840 5840 5841 5841 5842 5842 5843 5843 5844 5844 5845 5845 5846 5846 5847
5788 5789 5790 5793 5794 5795 5797 5797 5798 5799 5801 5802 5802 5803 5805 5806 5808 5810 5813 5815 5817 5818 5820 5822 5824 5825 5827 5828 5829 5830 5831 5833 5834 5835 5835 5836 5837 5837 5837 5838 5838 5839 5839 5840 5840 5841 5842 5842 5843
5780 5782 5783 5785 5787 5788 5790 5790 5791 5792 5794 5795 5796 5797 5799 5800 5802 5804 5806 5809 5811 5812 5814 5816 5818 5819 5821 5823 5824 5825 5826 5827 5829 5830 5830 5831 5832 5832 5833 5833 5833 5834 5835 5835 5836 5836 5837 5838 5839
5773 5775 5776 5778 5780 5781 5782 5783 5784 5785 5786 5787 5789 5790 5792 5793 5795 5797 5799 5802 5804 5806 5808 5810 5811 5813 5815 5817 5818 5820 5821 5822 5823 5824 5825 5826 5827 5827 5827 5828 5829 5829 5830 5830 5831 5832 5832 5833 5834
5765 5766 5769 5771 5772 5773 5774 5775 5776 5777 5778 5780 5781 5783 5784 5786 5788 5790 5792 5795 5797 5799 5801 5803 5805 5807 5808 5810 5812 5813 5815 5816 5817 5818 5819 5820 5821 5821 5822 5823 5823 5824 5825 5825 5826 5827 5828 5828 5829
5757 5759 5761 5762 5763 5764 5765 5766 5767 5769 5771 5772 5774 5775 5777 5779 5781 5783 5785 5787 5790 5792 5794 5795 5797 5799 5801 5803 5805 5806 5808 5809 5811 5812 5813 5814 5814 5815 5816 5817 5818 5819 5819 5820 5821 5822 5822 5823 5824
5749 5751 5752 5753 5754 5755 5756 5757 5759 5760 5763 5764 5765 5767 5768 5771 5772 5775 5777 5779 5781 5783 5785 5787 5789 5792 5794 5796 5798 5799 5801 5802 5804 5805 5806 5807 5808 5809 5810 5811 5812 5812 5813 5814 5815 5816 5817 5817 5818
5740 5742 5743 5744 5745 5746 5746 5748 5749 5751 5753 5754 5756 5758 5760 5762 5764 5766 5768 5770 5773 5775 5777 5780 5782 5784 5786 5788 5790 5791 5793 5794 5796 5797 5798 5800 5801 5802 5803 5804 5805 5806 5807 5808 5808 5810 5811 5811 5812
5732 5733 5734 5735 5735 5736 5737 5739 5740 5743 5743 5745 5747 5749 5751 5752 5755 5757 5759 5761 5764 5766 5768 5771 5773 5775 5777 5779 5781 5783 5784 5786 5787 5789 5790 5792 5793 5794 5796 5797 5798 5799 5800 5801 5802 5803 5804 5805 5806
5722 5723 5725 5726 5726 5727 5727 5729 5731 5733 5733 5735 5737 5739 5741 5743 5745 5747 5750 5752 5754 5757 5759 5761 5764 5765 5768 5770 5772 5774 5776 5777 5779 5780 5782 5783 5785 5786 5788 5789 5790 5792 5792 5794 5795 5796 5797 5798 5799
5712 5713 5714 5716 5716 5717 5718 5719 5722 5722 5722 5724 5726 5728 5730 5732 5735 5737 5739 5741 5744 5746 5749 5751 5753 5756 5758 5760 5763 5764 5766 5768 5769 5771 5773 5774 5776 5778 5779 5781 5782 5783 5784 5785 5787 5788 5789 5790 5791
5702 5703 5704 5706 5706 5706 5706 5708 5711 5710 5711 5712 5714 5716 5718 5721 5724 5726 5728 5731 5733 5736 5738 5741 5743 5745 5747 5750 5752 5754 5756 5758 5759 5761 5763 5765 5766 5768 5770 5771 5773 5774 5775 5777 5778 5780 5781 5782 5783
5693 5694 5694 5695 5695 5695 5695 5698 5699 5699 5699 5701 5702 5704 5707 5709 5712 5715 5717 5719 5722 5724 5727 5729 5732 5734 5736 5739 5741 5743 5745 5747 5749 5751 5753 5755 5757 5759 5760 5762 5764 5765 5766 5768 5769 5771 5772 5773 5774
5683 5683 5684 5685 5684 5684 5685 5686 5688 5687 5688 5689 5691 5693 5695 5698 5700 5702 5705 5707 5709 5712 5714 5717 5720 5722 5724 5726 5729 5732 5734 5736 5739 5741 5743 5745 5747 5749 5751 5753 5754 5756 5757 5759 5760 5761 5762 5763 5765
5672 5673 5674 5675 5674 5673 5674 5675 5676 5676 5677 5678 5680 5681 5684 5686 5688 5690 5692 5694 5697 5699 5701 5703 5706 5709 5712 5714 5717 5720 5722 5725 5727 5730 5732 5735 5737 5739 5741 5743 5745 5746 5748 5749 5750 5752 5753 5754 5755
5663 5664 5665 5665 5664 5663 5663 5665 5666 5666 5666 5667 5668 5670 5672 5674 5676 5678 5680 5682 5684 5686 5688 5690 5693 5695 5699 5701 5704 5707 5709 5712 5715 5718 5721 5724 5726 5728 5730 5733 5735 5736 5738 5739 5740 5742 5743 5744 5745
5654 5654 5654 5654 5653 5653 5653 5653 5657 5656 5655 5656 5657 5659 5661 5662 5664 5665 5667 5669 5670 5672 5674 5677 5679 5682 5685 5688 5691 5694 5697 5701 5704 5707 5709 5712 5714 5717 5719 5721 5723 5725 5727 5728 5730 5731 5733 5734 5735
5645 5645 5644 5644 5643 5643 5643 5642 5647 5646 5646 5646 5647 5648 5650 5651 5652 5653 5655 5656 5658 5659 5661 5664 5666 5668 5671 5675 5678 5681 5685 5688 5692 5694 5697 5700 5703 5705 5707 5710 5712 5714 5716 5718 5719 5721 5722 5724 5725
5636 5635 5635 5634 5634 5634 5635 5633 5635 5636 5637 5638 5638 5638 5639 5640 5641 5642 5643 5644 5646 5647 5648 5650 5652 5655 5658 5661 5664 5668 5671 5675 5679 5682 5685 5687 5690 5693 5695 5698 5700 5702 5704 5706 5708 5710 5712 5713 5715
5628 5628 5626 5625 5624 5625 5626 5624 5625 5627 5627 5627 5628 5628 5628 5629 5630 5631 5632 5633 5634 5635 5636 5637 5639 5641 5644 5647 5650 5654 5658 5662 5665 5669 5672 5675 5678 5680 5683 5685 5688 5690 5692 5695 5697 5699 5701 5702 5704
5620 5619 5619 5618 5617 5617 5616 5615 5617 5617 5617 5617 5617 5617 5617 5618 5619 5619 5620 5621 5622 5623 5623 5624 5625 5628 5630 5633 5637 5641 5645 5648 5652 5655 5659 5662 5666 5669 5671 5673 5676 5678 5680 5683 5685 5687 5689 5691 5692
5612 5611 5611 5610 5608 5607 5607 5607 5608 5607 5606 5606 5606 5606 5606 5607 5607 5607 5608 5609 5609 5610 5611 5612 5613 5615 5617 5620 5623 5627 5631 5635 5639 5643 5646 5650 5653 5656 5658 5661 5663 5666 5668 5670 5672 5675 5677 5679 5680
5605 5604 5603 5601 5599 5598 5598 5598 5599 5598 5597 5597 5597 5596 5596 5596 5596 5596 5596 5597 5597 5598 5599 5600 5601 5602 5604 5606 5609 5613 5618 5622 5626 5630 5634 5637 5640 5643 5646 5649 5651 5653 5655 5657 5659 5662 5664 5666 5668
5599 5598 5595 5594 5593 5591 5590 5593 5591 5590 5589 5588 5587 5586 5586 5586 5585 5585 5585 5586 5586 5586 5587 5588 5588 5589 5591 5593 5596 5599 5604 5608 5613 5617 5621 5625 5628 5631 5633 5636 5639 5641 5643 5645 5647 5650 5652 5653 5655
5591 5590 5589 5588 5586 5584 5582 5586 5583 5581 5580 5578 5577 5576 5576 5575 5575 5575 5575 5575 5575 5575 5575 5576 5576 5577 5578 5581 5583 5587 5591 5595 5600 5604 5608 5612 5615 5618 5621 5623 5626 5629 5631 5633 5635 5637 5639 5641 5643